Regional Weather Roundup
Issued by NWS Memphis, TN

Home | Current Version | Previous Version | Text Only | Print | Product List | Glossary On
Versions: 1 2 3 4 5 6 7 8 9 10 11 12 13 14 15 16 17 18 19 20 21 22 23 24 25 26 27 28 29 30 31 32 33 34 35 36 37 38 39 40 41 42 43 44 45 46 47 48 49 50
000
ASUS44 KMEG 152210
RWRMEG
MEMPHIS CWA HOURLY WEATHER ROUNDUP
NATIONAL WEATHER SERVICE MEMPHIS TN
400 PM CST FRI DEC 15 2017

...WEST TENNESSEE...

CITY           SKY/WX    TMP DP  RH WIND       PRES   REMARKS
MEMPHIS INTL   PTCLDY    46  26  45 S10       30.17F
NWS MEMPHIS      N/A     47 N/A N/A MISG        N/A
JACKSON        CLEAR     45  27  49 SW12      30.16S
COVINGTON      CLEAR     46  27  46 SW6G15    30.17S
SOMERVILLE     CLEAR     45  25  45 SW6       30.16S
BOLIVAR        CLEAR     45  25  45 SW6       30.16F
LEXINGTON      CLEAR     43  25  49 SW9       30.15S
SELMER         CLEAR     43  25  49 CALM      30.16S
SAVANNAH       CLEAR     43  25  49 SW8       30.17R
DYERSBURG      CLEAR     46  27  47 SW9       30.16R
UNION CITY     PTCLDY    45  27  49 SW8G14    30.14R
PARIS          CLEAR     43  25  49 SW9       30.14R
HUNTINGDON     CLEAR     43  25  49 SW7       30.14S


...EASTERN ARKANSAS...

CITY           SKY/WX    TMP DP  RH WIND       PRES   REMARKS
JONESBORO      CLEAR     49  30  48 SW12      30.14S
WEST MEMPHIS   CLEAR     47  28  47 W6        30.17S
BATESVILLE     PTCLDY    51  29  42 SW8       30.14R
NEWPORT        CLEAR     50  30  46 SW10      30.14R
WALNUT RIDGE   CLEAR     50  28  42 W10       30.13R
BLYTHEVILLE    CLEAR     48  29  47 SW10      30.16R
NW BLYTHEVILLE CLEAR     48  28  46 SW10G20   30.15S
SEARCY         CLEAR     52  30  43 SW7       30.16S
STUTTGART      CLEAR     50  29  44 SW9       30.18F
PINE BLUFF     CLEAR     50  28  42 SW8       30.19S
MONTICELLO     CLEAR     50  27  40 SW7       30.20S


...NORTH MISSISSIPPI...

CITY           SKY/WX    TMP DP  RH WIND       PRES   REMARKS
TUPELO         CLEAR     43  24  47 VRB3      30.21S
OXFORD         CLEAR     45  25  45 CALM      30.21S
BATESVILLE     CLEAR     46  24  43 SW5       30.21S
OLIVE BRANCH   PTCLDY    45  25  45 SW6       30.15F
TUNICA           N/A    N/A N/A N/A SW7       30.20F
CLARKSDALE     CLEAR     46  27  46 S5        30.20F
CORINTH        CLEAR     45  23  42 CALM      30.17F
GREENWOOD      PTCLDY    45  25  45 CALM      30.23R
COLUMBUS       CLOUDY    41  26  54 W6        30.21S
STARKVILLE     MOCLDY    41  27  56 CALM      30.23S
GOLDEN TRIANGL MOCLDY    41  25  53 NW3       30.22S


...SOUTHEAST MISSOURI...

CITY           SKY/WX    TMP DP  RH WIND       PRES   REMARKS
KENNETT        CLEAR     48  30  49 SW14      30.13S
MALDEN         CLEAR     48  30  49 SW12      30.13F
WEST PLAINS    CLEAR     46  26  45 W10       30.10S
POPLAR BLUFF   PTCLDY    49  27  42 SW10      30.09F
CAPE GIRARDEAU CLOUDY    45  27  49 SW13      30.09F


...NORTHWEST ALABAMA...

CITY           SKY/WX    TMP DP  RH WIND       PRES   REMARKS
MUSCLE SHOALS  CLEAR     40  23  50 SW6       30.19F


...MIDDLE TENNESSEE...

CITY           SKY/WX    TMP DP  RH WIND       PRES   REMARKS
NASHVILLE      PTCLDY    41  22  46 SW7       30.15R
CLARKSVILLE    CLEAR     42  21  43 NW9       30.14R
COLUMBIA       CLEAR     41  21  45 SW7       30.14R


...WESTERN KENTUCKY...

CITY           SKY/WX    TMP DP  RH WIND       PRES   REMARKS
PADUCAH        CLOUDY    44  25  47 SW10      30.11S
FORT CAMPBELL  MOCLDY    42  22  45 W8        30.14R


...CENTRAL ARKANSAS...

CITY           SKY/WX    TMP DP  RH WIND       PRES   REMARKS
LITTLE ROCK    PTCLDY    51  29  42 SW10      30.16F


SKY/WX REPORTED AS FAIR MEANS FEW OR NO CLOUDS BELOW
12 THOUSAND FEET.





USA.gov is the U.S. government's official web portal to all federal, state and local government web resources and services.